When you browse on this site, cookies collect data to enhance your experience and personalize the content and advertising you see.
Visit our Privacy Policy to learn more. By continuing to use the site, you agree to this use of cookies and data.
  • In Spain
  • List of Countries
  • For 7 days
  • Water Temperature
  • Satellite Maps
  • Weather Map
  • Weather Widgets
  • user-avatar
    Login

    Hourly Weather Bylniki

    Today, 17 July, Wednesday

    Time Temperature Precipitation Wind Pressure Humidity
    00:00 +11°C° 0 mm 1 mps 733 mmHg 92%
    01:00 +10°C° 0 mm 0 mps 733 mmHg 92%
    02:00 +10°C° 0 mm 0 mps 733 mmHg 92%
    03:00 +11°C° 0 mm 1 mps 733 mmHg 91%
    04:00 +12°C° 0 mm 2 mps 733 mmHg 91%
    05:00 +12°C° 0 mm 2 mps 733 mmHg 90%
    06:00 +13°C° 0 mm 2 mps 733 mmHg 87%
    07:00 +15°C° 0 mm 1 mps 733 mmHg 83%
    08:00 +15°C° 0 mm 1 mps 733 mmHg 79%
    09:00 +16°C° 0.3 mm 1 mps 733 mmHg 77%
    10:00 +18°C° 0.3 mm 1 mps 733 mmHg 76%
    11:00 +18°C° 0.3 mm 2 mps 733 mmHg 75%
    12:00 +19°C° 0.1 mm 1 mps 732 mmHg 71%
    13:00 +20°C° 0.1 mm 1 mps 732 mmHg 67%
    14:00 +21°C° 0.1 mm 1 mps 732 mmHg 64%
    15:00 +20°C° 0.1 mm 1 mps 732 mmHg 66%
    16:00 +20°C° 0.1 mm 1 mps 732 mmHg 69%
    17:00 +20°C° 0.1 mm 1 mps 732 mmHg 71%
    18:00 +19°C° 0.3 mm 1 mps 732 mmHg 76%
    19:00 +16°C° 0.3 mm 1 mps 731 mmHg 80%
    20:00 +15°C° 0.3 mm 1 mps 731 mmHg 85%
    21:00 +15°C° 0.1 mm 1 mps 731 mmHg 85%
    22:00 +15°C° 0.1 mm 1 mps 731 mmHg 85%
    23:00 +14°C° 0.1 mm 0 mps 731 mmHg 85%

    Tomorrow, 18 July, Thursday

    Time Temperature Precipitation Wind Pressure Humidity
    00:00 +14°C° 0.2 mm 1 mps 731 mmHg 87%
    01:00 +14°C° 0.2 mm 1 mps 731 mmHg 89%
    02:00 +14°C° 0.2 mm 2 mps 731 mmHg 91%
    03:00 +14°C° 0.2 mm 1 mps 731 mmHg 92%
    04:00 +14°C° 0.2 mm 1 mps 731 mmHg 93%
    05:00 +13°C° 0.2 mm 0 mps 730 mmHg 95%
    06:00 +14°C° 0.3 mm 1 mps 731 mmHg 93%
    07:00 +15°C° 0.3 mm 1 mps 731 mmHg 92%
    08:00 +15°C° 0.3 mm 1 mps 731 mmHg 91%
    09:00 +15°C° 0.5 mm 2 mps 731 mmHg 92%
    10:00 +14°C° 0.5 mm 3 mps 731 mmHg 93%
    11:00 +14°C° 0.5 mm 3 mps 731 mmHg 94%
    12:00 +14°C° 0.2 mm 3 mps 731 mmHg 93%
    13:00 +14°C° 0.2 mm 4 mps 731 mmHg 92%
    14:00 +14°C° 0.2 mm 4 mps 731 mmHg 92%
    15:00 +16°C° 0.2 mm 3 mps 731 mmHg 91%
    16:00 +16°C° 0.2 mm 3 mps 731 mmHg 91%
    17:00 +16°C° 0.2 mm 3 mps 731 mmHg 91%
    18:00 +14°C° 0.4 mm 3 mps 731 mmHg 93%
    19:00 +15°C° 0.4 mm 2 mps 731 mmHg 95%
    20:00 +14°C° 0.4 mm 2 mps 731 mmHg 97%
    21:00 +14°C° 0.2 mm 2 mps 731 mmHg 97%
    22:00 +13°C° 0.2 mm 3 mps 731 mmHg 97%
    23:00 +13°C° 0.2 mm 3 mps 731 mmHg 97%

    Day after tomorrow, 19 July, Friday

    Time Temperature Precipitation Wind Pressure Humidity
    00:00 +13°C° 0.9 mm 3 mps 732 mmHg 97%
    01:00 +13°C° 0.9 mm 4 mps 732 mmHg 97%
    02:00 +13°C° 0.9 mm 4 mps 732 mmHg 98%
    03:00 +13°C° 0.3 mm 4 mps 732 mmHg 97%
    04:00 +13°C° 0.3 mm 5 mps 732 mmHg 97%
    05:00 +13°C° 0.3 mm 5 mps 732 mmHg 97%
    06:00 +14°C° 0.2 mm 5 mps 732 mmHg 96%
    07:00 +14°C° 0.2 mm 5 mps 733 mmHg 96%
    08:00 +14°C° 0.2 mm 6 mps 733 mmHg 95%
    09:00 +14°C° 0.1 mm 6 mps 733 mmHg 94%
    10:00 +14°C° 0.1 mm 6 mps 734 mmHg 93%
    11:00 +14°C° 0.1 mm 6 mps 734 mmHg 91%
    12:00 +15°C° 0.5 mm 6 mps 734 mmHg 89%
    13:00 +16°C° 0.5 mm 6 mps 735 mmHg 87%
    14:00 +17°C° 0.5 mm 6 mps 735 mmHg 85%
    15:00 +16°C° 0.3 mm 6 mps 735 mmHg 86%
    16:00 +16°C° 0.3 mm 6 mps 735 mmHg 86%
    17:00 +15°C° 0.3 mm 5 mps 736 mmHg 87%
    18:00 +15°C° 0 mm 4 mps 736 mmHg 88%
    19:00 +15°C° 0 mm 4 mps 736 mmHg 89%
    20:00 +14°C° 0 mm 3 mps 736 mmHg 89%
    21:00 +14°C° 0 mm 3 mps 737 mmHg 90%
    22:00 +14°C° 0 mm 3 mps 737 mmHg 90%
    23:00 +14°C° 0 mm 4 mps 737 mmHg 91%

    20 July, Saturday

    Time Temperature Precipitation Wind Pressure Humidity
    00:00 +13°C° 0 mm 4 mps 737 mmHg 92%
    01:00 +13°C° 0 mm 4 mps 737 mmHg 93%
    02:00 +12°C° 0 mm 4 mps 737 mmHg 95%
    03:00 +12°C° 0 mm 4 mps 738 mmHg 95%
    04:00 +12°C° 0 mm 3 mps 738 mmHg 95%
    05:00 +12°C° 0 mm 3 mps 738 mmHg 95%
    06:00 +13°C° 0 mm 4 mps 738 mmHg 89%
    07:00 +15°C° 0 mm 4 mps 739 mmHg 84%
    08:00 +17°C° 0 mm 4 mps 739 mmHg 78%
    09:00 +17°C° 0.2 mm 5 mps 739 mmHg 77%
    10:00 +19°C° 0.2 mm 5 mps 740 mmHg 76%
    11:00 +20°C° 0.2 mm 5 mps 740 mmHg 75%
    12:00 +20°C° 0.7 mm 5 mps 740 mmHg 77%
    13:00 +20°C° 0.7 mm 5 mps 740 mmHg 79%
    14:00 +20°C° 0.7 mm 5 mps 740 mmHg 81%
    15:00 +20°C° 0.4 mm 4 mps 740 mmHg 80%
    16:00 +20°C° 0.4 mm 4 mps 740 mmHg 80%
    17:00 +20°C° 0.4 mm 4 mps 741 mmHg 80%
    18:00 +19°C° 0.1 mm 3 mps 741 mmHg 84%
    19:00 +17°C° 0.1 mm 3 mps 741 mmHg 88%
    20:00 +16°C° 0.1 mm 2 mps 741 mmHg 93%
    21:00 +15°C° 0 mm 2 mps 741 mmHg 93%
    22:00 +15°C° 0 mm 2 mps 741 mmHg 94%
    23:00 +14°C° 0 mm 2 mps 742 mmHg 95%

    21 July, Sunday

    Time Temperature Precipitation Wind Pressure Humidity
    00:00 +14°C° 0 mm 2 mps 742 mmHg 95%
    01:00 +13°C° 0 mm 2 mps 742 mmHg 96%
    02:00 +13°C° 0 mm 2 mps 742 mmHg 96%
    03:00 +13°C° 0 mm 2 mps 742 mmHg 96%
    04:00 +13°C° 0 mm 2 mps 742 mmHg 97%
    05:00 +13°C° 0 mm 2 mps 742 mmHg 97%
    06:00 +15°C° 0 mm 2 mps 742 mmHg 92%
    07:00 +16°C° 0 mm 2 mps 742 mmHg 88%
    08:00 +18°C° 0 mm 2 mps 743 mmHg 83%
    09:00 +19°C° 0 mm 2 mps 743 mmHg 77%
    10:00 +20°C° 0 mm 2 mps 743 mmHg 71%
    11:00 +21°C° 0 mm 2 mps 743 mmHg 65%
    12:00 +21°C° 0 mm 3 mps 743 mmHg 65%
    13:00 +22°C° 0 mm 3 mps 743 mmHg 65%
    14:00 +22°C° 0 mm 4 mps 743 mmHg 65%
    15:00 +22°C° 0.1 mm 4 mps 742 mmHg 67%
    16:00 +22°C° 0.1 mm 3 mps 742 mmHg 69%
    17:00 +21°C° 0.1 mm 3 mps 742 mmHg 71%
    18:00 +20°C° 0 mm 3 mps 742 mmHg 77%
    19:00 +18°C° 0 mm 2 mps 742 mmHg 83%
    20:00 +16°C° 0 mm 1 mps 742 mmHg 89%
    21:00 +16°C° 0 mm 1 mps 742 mmHg 90%
    22:00 +15°C° 0 mm 1 mps 742 mmHg 91%
    23:00 +14°C° 0 mm 1 mps 742 mmHg 91%

    22 July, Monday

    Time Temperature Precipitation Wind Pressure Humidity
    00:00 +14°C° 0 mm 1 mps 742 mmHg 92%
    01:00 +14°C° 0 mm 1 mps 742 mmHg 92%
    02:00 +13°C° 0 mm 1 mps 742 mmHg 93%
    03:00 +13°C° 0 mm 1 mps 742 mmHg 93%
    04:00 +13°C° 0 mm 1 mps 742 mmHg 94%
    05:00 +13°C° 0 mm 1 mps 742 mmHg 94%
    06:00 +15°C° 0 mm 1 mps 742 mmHg 88%
    07:00 +18°C° 0 mm 1 mps 742 mmHg 82%
    08:00 +20°C° 0 mm 1 mps 743 mmHg 76%
    09:00 +21°C° 0 mm 1 mps 743 mmHg 70%
    10:00 +22°C° 0 mm 1 mps 743 mmHg 63%
    11:00 +24°C° 0 mm 1 mps 743 mmHg 57%
    12:00 +24°C° 0 mm 1 mps 743 mmHg 53%
    13:00 +25°C° 0 mm 1 mps 742 mmHg 50%
    14:00 +25°C° 0 mm 2 mps 742 mmHg 47%
    15:00 +25°C° 0 mm 2 mps 742 mmHg 50%
    16:00 +25°C° 0 mm 2 mps 742 mmHg 54%
    17:00 +24°C° 0 mm 2 mps 742 mmHg 58%
    18:00 +21°C° 0 mm 2 mps 742 mmHg 64%
    19:00 +19°C° 0 mm 2 mps 742 mmHg 69%
    20:00 +17°C° 0 mm 2 mps 742 mmHg 75%
    21:00 +16°C° 0 mm 2 mps 742 mmHg 76%
    22:00 +15°C° 0 mm 2 mps 742 mmHg 77%
    23:00 +15°C° 0 mm 2 mps 742 mmHg 78%
    Show more